COSMOS 2251 DEB, 35834

Orbit data source: Space-Track

COSMOS 2251 DEB, 35834 is space debris in LEO originally from a launch on Wed, 16 Jun 1993 UTC launched from the Plesetsk Missile And Space Complex (PKMTR). The debris from Iridium 33, an American commercial communications satellite, has been tracked extensively since its accidental collision with the defunct Russian satellite Cosmos 2251 in 2009. This event, occurring at high speed in low Earth orbit (LEO), generated thousands of pieces of space debris, significantly increasing the risk of further collisions. The Iridium 33 debris cloud has impacted space traffic management and orbital debris mitigation strategies, making it a subject of ongoing study in space situational awareness.

Loading next visibility...
Identifier
35834, 1993-036ATG
Orbit
LEO
Country
Flag of CISCIS
Related business
Manufacturer
Unknown
Mission
Spacecraft
Bus & Motor
Unknown
Mass
Unknown
Launch date (UTC)
1993-06-16 (33 years ago)
Launch vehicle
Unknown
Launch site
Plesetsk Missile And Space Complex (PKMTR)
Object type
Payload
Rocket body
Debris
Shape & HBR
Unknown shape, 0.1 m
Radar Cross Section
Small (<0.1 m²)

Expand to show TLE details & history
Last TLE update: 6 hours ago

TLE from 6 hours ago
0 COSMOS 2251 DEB
1 35834U 93036ATG 26071.66260057  .00000164  00000-0  95906-4 0  9996
2 35834  73.9332 144.5176 0112229 285.5006 231.7051 14.13066473675331
Epoch: 2026-03-12T15:54Z
TLE epoch observation values (Epoch: 2026-03-12T15:54:08.689Z)
Latitude
22.83555°
Longitude
-91.25705°
Altitude
902.159 km
Speed
7.377 km/s
True Right ascension
21h 10m 21s
True Declination
22° 42' 55"
Sunlit
Object was in daylight at epoch
Visualization orbit readout
Latitude
Unknown
Longitude
Unknown
Altitude
Unknown
Speed
Unknown
Apparent Right ascension
Unknown
Apparent Declination
Unknown
Sunlit
N/A
Visualization observer readout
Local Sidereal Time
02:08:17
Azimuth
Unknown
Elevation
Unknown
Doppler factor
Unknown
Orbital elements
Apogee altitude
927.637 km
Perigee altitude
765.473 km
Semi-major axis
7,224.692 km
Eccentricity
0.01122
Inclination
73.9332°
RAAN
144.5176°
Arg. of periapsis
285.5006°
True anomaly
230.70452°
Mean anomaly
231.7051°
Eccentric anomaly
231.20394°
Mean motion
3.53439 °/min
Orbital period
101.86 mins
BSTAR
0.000095906
Loading maneuver chart data...
Computing Atmospheric mass density...

Documentation

Showing up to 5 results
|